Location: Calvatone
(45.1167°N, 10.4333°E)
Time: 15:54:27
(UTC+00:00)

BlueWalker 3 - Pass Details

Date: 12 June 2023
Orbit: 491 x 508 km, 53.2° (Epoch: 28 September)

Event Time Altitude Azimuth Distance (km) Brightness Sun altitude
Rises 21:26:15 0° 300° (WNW) 2,581 6.5 -17.1°
Reaches altitude 10° 21:28:29 10° 294° (WNW) 1,699 5.3 -17.3°
Maximum altitude 21:32:10 45° 221° (SW) 689 2.4 -17.6°
Enters shadow 21:32:54 39° 187° (S) 757 2.4 -17.6°
